Year,Month,Day,Hour,Minute,Value (Times are PST for temperature in C)
2013,10,22,00,00,7.40
2013,10,22,00,01,7.40
2013,10,22,00,02,7.40
2013,10,22,00,03,7.40
2013,10,22,00,04,7.40
2013,10,22,00,05,7.40
2013,10,22,00,06,7.40
2013,10,22,00,07,7.40
2013,10,22,00,08,7.50
2013,10,22,00,09,7.50
2013,10,22,00,10,7.60
2013,10,22,00,11,7.60
2013,10,22,00,12,7.70
2013,10,22,00,13,7.70
2013,10,22,00,14,7.70
2013,10,22,00,15,7.70
2013,10,22,00,16,7.70
2013,10,22,00,17,7.70
2013,10,22,00,18,7.60
2013,10,22,00,19,7.60
2013,10,22,00,20,7.60
2013,10,22,00,21,7.60
2013,10,22,00,22,7.60
2013,10,22,00,23,7.60
2013,10,22,00,24,7.60
2013,10,22,00,25,7.70
2013,10,22,00,26,7.70
2013,10,22,00,27,7.70
2013,10,22,00,28,7.60
2013,10,22,00,29,7.60
2013,10,22,00,30,7.60
2013,10,22,00,31,7.60
2013,10,22,00,32,7.60
2013,10,22,00,33,7.60
2013,10,22,00,34,7.60
2013,10,22,00,35,7.60
2013,10,22,00,36,7.50
2013,10,22,00,37,7.50
2013,10,22,00,38,7.50
2013,10,22,00,39,7.40
2013,10,22,00,40,7.40
2013,10,22,00,41,7.40
2013,10,22,00,42,7.30
2013,10,22,00,43,7.30
2013,10,22,00,44,7.30
2013,10,22,00,45,7.30
2013,10,22,00,46,7.30
2013,10,22,00,47,7.30
2013,10,22,00,48,7.30
2013,10,22,00,49,7.20
2013,10,22,00,50,7.20
2013,10,22,00,51,7.30
2013,10,22,00,52,7.30
2013,10,22,00,53,7.40
2013,10,22,00,54,7.40
2013,10,22,00,55,7.40
2013,10,22,00,56,7.40
2013,10,22,00,57,7.40
2013,10,22,00,58,7.50
2013,10,22,00,59,7.50
2013,10,22,01,00,7.50
2013,10,22,01,01,7.50
2013,10,22,01,02,7.40
2013,10,22,01,03,7.40
2013,10,22,01,04,7.40
2013,10,22,01,05,7.40
2013,10,22,01,06,7.50
2013,10,22,01,07,7.50
2013,10,22,01,08,7.60
2013,10,22,01,09,7.60
2013,10,22,01,10,7.60
2013,10,22,01,11,7.60
2013,10,22,01,12,7.60
2013,10,22,01,13,7.60
2013,10,22,01,14,7.60
2013,10,22,01,15,7.70
2013,10,22,01,16,7.70
2013,10,22,01,17,7.70
2013,10,22,01,18,7.70
2013,10,22,01,19,7.60
2013,10,22,01,20,7.60
2013,10,22,01,21,7.60
2013,10,22,01,22,7.60
2013,10,22,01,23,7.50
2013,10,22,01,24,7.50
2013,10,22,01,25,7.40
2013,10,22,01,26,7.40
2013,10,22,01,27,7.30
2013,10,22,01,28,7.30
2013,10,22,01,29,7.20
2013,10,22,01,30,7.20
2013,10,22,01,31,7.20
2013,10,22,01,32,7.20
2013,10,22,01,33,7.20
2013,10,22,01,34,7.20
2013,10,22,01,35,7.20
2013,10,22,01,36,7.20
2013,10,22,01,37,7.20
2013,10,22,01,38,7.20
2013,10,22,01,39,7.20
2013,10,22,01,40,7.20
2013,10,22,01,41,7.20
2013,10,22,01,42,7.20
2013,10,22,01,43,7.20
2013,10,22,01,44,7.20
2013,10,22,01,45,7.20
2013,10,22,01,46,7.20
2013,10,22,01,47,7.20
2013,10,22,01,48,7.20
2013,10,22,01,49,7.20
2013,10,22,01,50,7.20
2013,10,22,01,51,7.20
2013,10,22,01,52,7.20
2013,10,22,01,53,7.20
2013,10,22,01,54,7.20
2013,10,22,01,55,7.20
2013,10,22,01,56,7.20
2013,10,22,01,57,7.20
2013,10,22,01,58,7.20
2013,10,22,01,59,7.20
2013,10,22,02,00,7.20
2013,10,22,02,01,7.20
2013,10,22,02,02,7.20
2013,10,22,02,03,7.20
2013,10,22,02,04,7.20
2013,10,22,02,05,7.20
2013,10,22,02,06,7.20
2013,10,22,02,07,7.10
2013,10,22,02,08,7.10
2013,10,22,02,09,7.10
2013,10,22,02,10,7.10
2013,10,22,02,11,7.10
2013,10,22,02,12,7.10
2013,10,22,02,13,7.20
2013,10,22,02,14,7.20
2013,10,22,02,15,7.20
2013,10,22,02,16,7.20
2013,10,22,02,17,7.20
2013,10,22,02,18,7.20
2013,10,22,02,19,7.20
2013,10,22,02,20,7.30
2013,10,22,02,21,7.30
2013,10,22,02,22,7.30
2013,10,22,02,23,7.30
2013,10,22,02,24,7.30
2013,10,22,02,25,7.30
2013,10,22,02,26,7.30
2013,10,22,02,27,7.30
2013,10,22,02,28,7.30
2013,10,22,02,29,7.30
2013,10,22,02,30,7.30
2013,10,22,02,31,7.30
2013,10,22,02,32,7.30
2013,10,22,02,33,7.40
2013,10,22,02,34,7.40
2013,10,22,02,35,7.30
2013,10,22,02,36,7.30
2013,10,22,02,37,7.30
2013,10,22,02,38,7.30
2013,10,22,02,39,7.30
2013,10,22,02,40,7.30
2013,10,22,02,41,7.30
2013,10,22,02,42,7.30
2013,10,22,02,43,7.30
2013,10,22,02,44,7.30
2013,10,22,02,45,7.30
2013,10,22,02,46,7.30
2013,10,22,02,47,7.30
2013,10,22,02,48,7.40
2013,10,22,02,49,7.40
2013,10,22,02,50,7.30
2013,10,22,02,51,7.30
2013,10,22,02,52,7.30
2013,10,22,02,53,7.30
2013,10,22,02,54,7.30
2013,10,22,02,55,7.30
2013,10,22,02,56,7.30
2013,10,22,02,57,7.30
2013,10,22,02,58,7.30
2013,10,22,02,59,7.30
2013,10,22,03,00,7.30
2013,10,22,03,01,7.30
2013,10,22,03,02,7.30
2013,10,22,03,03,7.30
2013,10,22,03,04,7.40
2013,10,22,03,05,7.40
2013,10,22,03,06,7.40
2013,10,22,03,07,7.40
2013,10,22,03,08,7.40
2013,10,22,03,09,7.40
2013,10,22,03,10,7.40
2013,10,22,03,11,7.40
2013,10,22,03,12,7.40
2013,10,22,03,13,7.40
2013,10,22,03,14,7.40
2013,10,22,03,15,7.40
2013,10,22,03,16,7.40
2013,10,22,03,17,7.40
2013,10,22,03,18,7.40
2013,10,22,03,19,7.40
2013,10,22,03,20,7.40
2013,10,22,03,21,7.40
2013,10,22,03,22,7.40
2013,10,22,03,23,7.40
2013,10,22,03,24,7.40
2013,10,22,03,25,7.40
2013,10,22,03,26,7.30
2013,10,22,03,27,7.30
2013,10,22,03,28,7.30
2013,10,22,03,29,7.40
2013,10,22,03,30,7.40
2013,10,22,03,31,7.40
2013,10,22,03,32,7.30
2013,10,22,03,33,7.30
2013,10,22,03,34,7.30
2013,10,22,03,35,7.30
2013,10,22,03,36,7.30
2013,10,22,03,37,7.30
2013,10,22,03,38,7.30
2013,10,22,03,39,7.30
2013,10,22,03,40,7.30
2013,10,22,03,41,7.20
2013,10,22,03,42,7.20
2013,10,22,03,43,7.20
2013,10,22,03,44,7.20
2013,10,22,03,45,7.20
2013,10,22,03,46,7.20
2013,10,22,03,47,7.20
2013,10,22,03,48,7.20
2013,10,22,03,49,7.20
2013,10,22,03,50,7.20
2013,10,22,03,51,7.20
2013,10,22,03,52,7.20
2013,10,22,03,53,7.20
2013,10,22,03,54,7.10
2013,10,22,03,55,7.10
2013,10,22,03,56,7.10
2013,10,22,03,57,7.10
2013,10,22,03,58,7.10
2013,10,22,03,59,7.10
2013,10,22,04,00,7.10
2013,10,22,04,01,7.00
2013,10,22,04,02,7.00
2013,10,22,04,03,7.00
2013,10,22,04,04,7.00
2013,10,22,04,05,7.00
2013,10,22,04,06,6.90
2013,10,22,04,07,6.90
2013,10,22,04,08,6.90
2013,10,22,04,09,6.90
2013,10,22,04,10,6.90
2013,10,22,04,11,6.90
2013,10,22,04,12,6.90
2013,10,22,04,13,6.90
2013,10,22,04,14,6.90
2013,10,22,04,15,6.90
2013,10,22,04,16,6.90
2013,10,22,04,17,6.80
2013,10,22,04,18,6.80
2013,10,22,04,19,6.80
2013,10,22,04,20,6.80
2013,10,22,04,21,6.80
2013,10,22,04,22,6.80
2013,10,22,04,23,6.80
2013,10,22,04,24,6.80
2013,10,22,04,25,6.80
2013,10,22,04,26,6.80
2013,10,22,04,27,6.80
2013,10,22,04,28,6.80
2013,10,22,04,29,6.80
2013,10,22,04,30,6.90
2013,10,22,04,31,6.90
2013,10,22,04,32,6.90
2013,10,22,04,33,6.90
2013,10,22,04,34,6.90
2013,10,22,04,35,6.90
2013,10,22,04,36,6.90
2013,10,22,04,37,6.90
2013,10,22,04,38,6.80
2013,10,22,04,39,6.80
2013,10,22,04,40,6.80
2013,10,22,04,41,6.70
2013,10,22,04,42,6.70
2013,10,22,04,43,6.70
2013,10,22,04,44,6.70
2013,10,22,04,45,6.70
2013,10,22,04,46,6.70
2013,10,22,04,47,6.70
2013,10,22,04,48,6.70
2013,10,22,04,49,6.70
2013,10,22,04,50,6.70
2013,10,22,04,51,6.70
2013,10,22,04,52,6.70
2013,10,22,04,53,6.70
2013,10,22,04,54,6.70
2013,10,22,04,55,6.70
2013,10,22,04,56,6.70
2013,10,22,04,57,6.80
2013,10,22,04,58,6.80
2013,10,22,04,59,6.80
2013,10,22,05,00,6.80
2013,10,22,05,01,6.90
2013,10,22,05,02,6.90
2013,10,22,05,03,6.90
2013,10,22,05,04,6.90
2013,10,22,05,05,6.90
2013,10,22,05,06,6.90
2013,10,22,05,07,6.90
2013,10,22,05,08,6.90
2013,10,22,05,09,6.90
2013,10,22,05,10,6.90
2013,10,22,05,11,6.90
2013,10,22,05,12,6.90
2013,10,22,05,13,6.90
2013,10,22,05,14,6.90
2013,10,22,05,15,6.90
2013,10,22,05,16,6.90
2013,10,22,05,17,6.90
2013,10,22,05,18,6.90
2013,10,22,05,19,6.90
2013,10,22,05,20,6.90
2013,10,22,05,21,6.90
2013,10,22,05,22,6.90
2013,10,22,05,23,6.90
2013,10,22,05,24,6.90
2013,10,22,05,25,6.90
2013,10,22,05,26,6.90
2013,10,22,05,27,6.90
2013,10,22,05,28,6.90
2013,10,22,05,29,6.90
2013,10,22,05,30,6.90
2013,10,22,05,31,6.90
2013,10,22,05,32,6.90
2013,10,22,05,33,6.90
2013,10,22,05,34,6.90
2013,10,22,05,35,6.80
2013,10,22,05,36,6.80
2013,10,22,05,37,6.90
2013,10,22,05,38,6.80
2013,10,22,05,39,6.80
2013,10,22,05,40,6.80
2013,10,22,05,41,6.80
2013,10,22,05,42,6.80
2013,10,22,05,43,6.80
2013,10,22,05,44,6.80
2013,10,22,05,45,6.80
2013,10,22,05,46,6.80
2013,10,22,05,47,6.80
2013,10,22,05,48,6.80
2013,10,22,05,49,6.80
2013,10,22,05,50,6.80
2013,10,22,05,51,6.80
2013,10,22,05,52,6.90
2013,10,22,05,53,6.90
2013,10,22,05,54,6.90
2013,10,22,05,55,6.90
2013,10,22,05,56,6.90
2013,10,22,05,57,6.90
2013,10,22,05,58,6.90
2013,10,22,05,59,6.90
2013,10,22,06,00,6.90
2013,10,22,06,01,6.90
2013,10,22,06,02,6.80
2013,10,22,06,03,6.80
2013,10,22,06,04,6.90
2013,10,22,06,05,6.90
2013,10,22,06,06,6.90
2013,10,22,06,07,6.80
2013,10,22,06,08,6.80
2013,10,22,06,09,6.80
2013,10,22,06,10,6.80
2013,10,22,06,11,6.80
2013,10,22,06,12,6.80
2013,10,22,06,13,6.80
2013,10,22,06,14,6.80
2013,10,22,06,15,6.80
2013,10,22,06,16,6.80
2013,10,22,06,17,6.80
2013,10,22,06,18,6.80
2013,10,22,06,19,6.80
2013,10,22,06,20,6.80
2013,10,22,06,21,6.80
2013,10,22,06,22,6.80
2013,10,22,06,23,6.80
2013,10,22,06,24,6.80
2013,10,22,06,25,6.80
2013,10,22,06,26,6.80
2013,10,22,06,27,6.80
2013,10,22,06,28,6.80
2013,10,22,06,29,6.80
2013,10,22,06,30,6.80
2013,10,22,06,31,6.80
2013,10,22,06,32,6.80
2013,10,22,06,33,6.80
2013,10,22,06,34,6.80
2013,10,22,06,35,6.80
2013,10,22,06,36,6.80
2013,10,22,06,37,6.80
2013,10,22,06,38,6.80
2013,10,22,06,39,6.80
2013,10,22,06,40,6.80
2013,10,22,06,41,6.80
2013,10,22,06,42,6.80
2013,10,22,06,43,6.80
2013,10,22,06,44,6.80
2013,10,22,06,45,6.80
2013,10,22,06,46,6.80
2013,10,22,06,47,6.80
2013,10,22,13,46,13.20
2013,10,22,13,47,13.20
2013,10,22,13,48,13.30
2013,10,22,13,49,13.40
2013,10,22,13,50,13.50
2013,10,22,13,51,13.50
2013,10,22,13,52,13.60
2013,10,22,13,53,13.60
2013,10,22,13,54,13.60
2013,10,22,13,55,13.60
2013,10,22,13,56,13.70
2013,10,22,13,57,13.70
2013,10,22,13,58,13.70
2013,10,22,13,59,13.70
2013,10,22,14,00,13.70
2013,10,22,14,01,13.70
2013,10,22,14,02,13.70
2013,10,22,14,03,13.70
2013,10,22,14,04,13.70
2013,10,22,14,05,13.70
2013,10,22,14,06,13.70
2013,10,22,14,07,13.70
2013,10,22,14,08,13.70
2013,10,22,14,09,13.70
2013,10,22,14,10,13.70
2013,10,22,14,11,13.70
2013,10,22,14,12,13.70
2013,10,22,14,13,13.70
2013,10,22,14,14,13.70
2013,10,22,14,15,13.70
2013,10,22,14,16,13.70
2013,10,22,14,17,13.60
2013,10,22,14,18,13.60
2013,10,22,14,19,13.60
2013,10,22,14,20,13.60
2013,10,22,14,21,13.60
2013,10,22,14,22,13.60
2013,10,22,14,23,13.60
2013,10,22,14,24,13.60
2013,10,22,14,25,13.60
2013,10,22,14,26,13.60
2013,10,22,14,27,13.60
2013,10,22,14,28,13.60
2013,10,22,14,29,13.70
2013,10,22,14,30,13.70
2013,10,22,14,31,13.80
2013,10,22,14,32,13.80
2013,10,22,14,33,13.80
2013,10,22,14,34,13.80
2013,10,22,14,35,13.70
2013,10,22,14,36,13.70
2013,10,22,14,37,13.70
2013,10,22,14,38,13.70
2013,10,22,14,39,13.70
2013,10,22,14,40,13.70
2013,10,22,14,41,13.80
2013,10,22,14,42,13.80
2013,10,22,14,43,13.80
2013,10,22,14,44,13.90
2013,10,22,14,45,14.00
2013,10,22,14,46,14.00
2013,10,22,14,47,14.10
2013,10,22,14,48,14.10
2013,10,22,14,49,14.10
2013,10,22,14,50,14.10
2013,10,22,14,51,14.20
2013,10,22,14,52,14.20
2013,10,22,14,53,14.20
2013,10,22,14,54,14.20
2013,10,22,14,55,14.20
2013,10,22,14,56,14.20
2013,10,22,14,57,14.20
2013,10,22,14,58,14.30
2013,10,22,14,59,14.30
2013,10,22,15,00,14.30
2013,10,22,15,01,14.30
2013,10,22,15,02,14.30
2013,10,22,15,03,14.30
2013,10,22,15,04,14.40
2013,10,22,15,05,14.40
2013,10,22,15,06,14.40
2013,10,22,15,07,14.40
2013,10,22,15,08,14.40
2013,10,22,15,09,14.50
2013,10,22,15,10,14.50
2013,10,22,15,11,14.50
2013,10,22,15,12,14.50
2013,10,22,15,13,14.40
2013,10,22,15,14,14.40
2013,10,22,15,15,14.40
2013,10,22,15,16,14.40
2013,10,22,15,17,14.40
2013,10,22,15,18,14.50
2013,10,22,15,19,14.50
2013,10,22,15,20,14.50
2013,10,22,15,21,14.50
2013,10,22,15,22,14.50
2013,10,22,15,23,14.50
2013,10,22,15,24,14.40
2013,10,22,15,25,14.40
2013,10,22,15,26,14.40
2013,10,22,15,27,14.40
2013,10,22,15,28,14.40
2013,10,22,15,29,14.40
2013,10,22,15,30,14.40
2013,10,22,15,31,14.50
2013,10,22,15,32,14.40
2013,10,22,15,33,14.40
2013,10,22,15,34,14.40
2013,10,22,15,35,14.40
2013,10,22,15,36,14.40
2013,10,22,15,37,14.50
2013,10,22,15,38,14.50
2013,10,22,15,39,14.60
2013,10,22,15,40,14.60
2013,10,22,15,41,14.60
2013,10,22,15,42,14.60
2013,10,22,15,43,14.60
2013,10,22,15,44,14.60
2013,10,22,15,45,14.60
2013,10,22,15,46,14.60
2013,10,22,15,47,14.60
2013,10,22,15,48,14.70
2013,10,22,15,49,14.70
2013,10,22,15,50,14.70
2013,10,22,15,51,14.70
2013,10,22,15,52,14.70
2013,10,22,15,53,14.70
2013,10,22,15,54,14.70
2013,10,22,15,55,14.70
2013,10,22,15,56,14.70
2013,10,22,15,57,14.70
2013,10,22,15,58,14.70
2013,10,22,15,59,14.70
2013,10,22,16,00,14.80
2013,10,22,16,01,14.80
2013,10,22,16,02,14.80
2013,10,22,16,03,14.70
2013,10,22,16,04,14.70
2013,10,22,16,05,14.70
2013,10,22,16,06,14.60
2013,10,22,16,07,14.60
2013,10,22,16,08,14.50
2013,10,22,16,09,14.50
2013,10,22,16,10,14.40
2013,10,22,16,11,14.40
2013,10,22,16,12,14.40
2013,10,22,16,13,14.40
2013,10,22,16,14,14.40
2013,10,22,16,15,14.40
2013,10,22,16,16,14.30
2013,10,22,16,17,14.30
2013,10,22,16,18,14.30
2013,10,22,16,19,14.30
2013,10,22,16,20,14.30
2013,10,22,16,21,14.30
2013,10,22,16,22,14.30
2013,10,22,16,23,14.30
2013,10,22,16,24,14.30
2013,10,22,16,25,14.30
2013,10,22,16,26,14.30
2013,10,22,16,27,14.30
2013,10,22,16,28,14.30
2013,10,22,16,29,14.30
2013,10,22,16,30,14.30
2013,10,22,16,31,14.30
2013,10,22,16,32,14.40
2013,10,22,16,33,14.40
2013,10,22,16,34,14.50
2013,10,22,16,35,14.50
2013,10,22,16,36,14.50
2013,10,22,16,37,14.60
2013,10,22,16,38,14.60
2013,10,22,16,39,14.60
2013,10,22,16,40,14.60
2013,10,22,16,41,14.50
2013,10,22,16,42,14.50
2013,10,22,16,43,14.50
2013,10,22,16,44,14.50
2013,10,22,16,45,14.60
2013,10,22,16,46,14.60
2013,10,22,16,47,14.60
2013,10,22,16,48,14.60
2013,10,22,16,49,14.60
2013,10,22,16,50,14.60
2013,10,22,16,51,14.60
2013,10,22,16,52,14.50
2013,10,22,16,53,14.50
2013,10,22,16,54,14.50
2013,10,22,16,55,14.50
2013,10,22,16,56,14.60
2013,10,22,16,57,14.60
2013,10,22,16,58,14.60
2013,10,22,16,59,14.60
2013,10,22,17,00,14.50
2013,10,22,17,01,14.50
2013,10,22,17,02,14.40
2013,10,22,17,03,14.40
2013,10,22,17,04,14.40
2013,10,22,17,05,14.30
2013,10,22,17,06,14.30
2013,10,22,17,07,14.30
2013,10,22,17,08,14.30
2013,10,22,17,09,14.20
2013,10,22,17,10,14.20
2013,10,22,17,11,14.20
2013,10,22,17,12,14.20
2013,10,22,17,13,14.20
2013,10,22,17,14,14.10
2013,10,22,17,15,14.10
2013,10,22,17,16,14.00
2013,10,22,17,17,13.90
2013,10,22,17,18,13.80
2013,10,22,17,19,13.80
2013,10,22,17,20,13.70
2013,10,22,17,21,13.60
2013,10,22,17,22,13.50
2013,10,22,17,23,13.40
2013,10,22,17,24,13.30
2013,10,22,17,25,13.10
2013,10,22,17,26,13.00
2013,10,22,17,27,12.90
2013,10,22,17,28,12.80
2013,10,22,17,29,12.70
2013,10,22,17,30,12.60
2013,10,22,17,31,12.50
2013,10,22,17,32,12.50
2013,10,22,17,33,12.40
2013,10,22,17,34,12.30
2013,10,22,17,35,12.30
2013,10,22,17,36,12.20
2013,10,22,17,37,12.10
2013,10,22,17,38,12.10
2013,10,22,17,39,12.00
2013,10,22,17,40,11.90
2013,10,22,17,41,11.90
2013,10,22,17,42,11.80
2013,10,22,17,43,11.80
2013,10,22,17,44,11.70
2013,10,22,17,45,11.60
2013,10,22,17,46,11.60
2013,10,22,17,47,11.50
2013,10,22,17,48,11.40
2013,10,22,17,49,11.40
2013,10,22,17,50,11.30
2013,10,22,17,51,11.30
2013,10,22,17,52,11.20
2013,10,22,17,53,11.20
2013,10,22,17,54,11.10
2013,10,22,17,55,11.10
2013,10,22,17,56,11.10
2013,10,22,17,57,11.00
2013,10,22,17,58,11.00
2013,10,22,17,59,10.90
2013,10,22,18,00,10.90
2013,10,22,18,01,10.80
2013,10,22,18,02,10.80
2013,10,22,18,03,10.80
2013,10,22,18,04,10.80
2013,10,22,18,05,10.70
2013,10,22,18,06,10.70
2013,10,22,18,07,10.70
2013,10,22,18,08,10.60
2013,10,22,18,09,10.60
2013,10,22,18,10,10.60
2013,10,22,18,11,10.60
2013,10,22,18,12,10.50
2013,10,22,18,13,10.50
2013,10,22,18,14,10.50
2013,10,22,18,15,10.40
2013,10,22,18,16,10.40
2013,10,22,18,17,10.40
2013,10,22,18,18,10.40
2013,10,22,18,19,10.30
2013,10,22,18,20,10.30
2013,10,22,18,21,10.30
2013,10,22,18,22,10.20
2013,10,22,18,23,10.20
2013,10,22,18,24,10.10
2013,10,22,18,25,10.10
2013,10,22,18,26,10.00
2013,10,22,18,27,9.90
2013,10,22,18,28,9.90
2013,10,22,18,29,9.90
2013,10,22,18,30,9.80
2013,10,22,18,31,9.80
2013,10,22,18,32,9.70
2013,10,22,18,33,9.70
2013,10,22,18,34,9.70
2013,10,22,18,35,9.60
2013,10,22,18,36,9.60
2013,10,22,18,37,9.60
2013,10,22,18,38,9.50
2013,10,22,18,39,9.50
2013,10,22,18,40,9.40
2013,10,22,18,41,9.40
2013,10,22,18,42,9.40
2013,10,22,18,43,9.30
2013,10,22,18,44,9.30
2013,10,22,18,45,9.30
2013,10,22,18,46,9.20
2013,10,22,18,47,9.20
2013,10,22,18,48,9.20
2013,10,22,18,49,9.20
2013,10,22,18,50,9.10
2013,10,22,18,51,9.10
2013,10,22,18,52,9.10
2013,10,22,18,53,9.10
2013,10,22,18,54,9.00
2013,10,22,18,55,9.00
2013,10,22,18,56,9.00
2013,10,22,18,57,8.90
2013,10,22,18,58,8.90
2013,10,22,18,59,8.90
2013,10,22,19,00,8.90
2013,10,22,19,01,8.90
2013,10,22,19,02,8.90
2013,10,22,19,03,8.90
2013,10,22,19,04,8.90
2013,10,22,19,05,8.80
2013,10,22,19,06,8.80
2013,10,22,19,07,8.80
2013,10,22,19,08,8.80
2013,10,22,19,09,8.70
2013,10,22,19,10,8.70
2013,10,22,19,11,8.70
2013,10,22,19,12,8.60
2013,10,22,19,13,8.60
2013,10,22,19,14,8.60
2013,10,22,19,15,8.60
2013,10,22,19,16,8.60
2013,10,22,19,17,8.50
2013,10,22,19,18,8.50
2013,10,22,19,19,8.50
2013,10,22,19,20,8.40
2013,10,22,19,21,8.40
2013,10,22,19,22,8.40
2013,10,22,19,23,8.40
2013,10,22,19,24,8.30
2013,10,22,19,25,8.30
2013,10,22,19,26,8.30
2013,10,22,19,27,8.30
2013,10,22,19,28,8.30
2013,10,22,19,29,8.30
2013,10,22,19,30,8.30
2013,10,22,19,31,8.30
2013,10,22,19,32,8.30
2013,10,22,19,33,8.30
2013,10,22,19,34,8.30
2013,10,22,19,35,8.30
2013,10,22,19,36,8.30
2013,10,22,19,37,8.30
2013,10,22,19,38,8.30
2013,10,22,19,39,8.30
2013,10,22,19,40,8.30
2013,10,22,19,41,8.30
2013,10,22,19,42,8.30
2013,10,22,19,43,8.30
2013,10,22,19,44,8.30
2013,10,22,19,45,8.30
2013,10,22,19,46,8.30
2013,10,22,19,47,8.20
2013,10,22,19,48,8.20
2013,10,22,19,49,8.20
2013,10,22,19,50,8.20
2013,10,22,19,51,8.20
2013,10,22,19,52,8.10
2013,10,22,19,53,8.10
2013,10,22,19,54,8.10
2013,10,22,19,55,8.10
2013,10,22,19,56,8.10
2013,10,22,19,57,8.10
2013,10,22,19,58,8.10
2013,10,22,19,59,8.10
2013,10,22,20,00,8.10
2013,10,22,20,01,8.10
2013,10,22,20,02,8.00
2013,10,22,20,03,8.00
2013,10,22,20,04,8.00
2013,10,22,20,05,7.90
2013,10,22,20,06,7.90
2013,10,22,20,07,7.90
2013,10,22,20,08,7.90
2013,10,22,20,09,7.80
2013,10,22,20,10,7.80
2013,10,22,20,11,7.80
2013,10,22,20,12,7.80
2013,10,22,20,13,7.80
2013,10,22,20,14,7.80
2013,10,22,20,15,7.80
2013,10,22,20,16,7.80
2013,10,22,20,17,7.80
2013,10,22,20,18,7.80
2013,10,22,20,19,7.80
2013,10,22,20,20,7.80
2013,10,22,20,21,7.80
2013,10,22,20,22,7.80
2013,10,22,20,23,7.80
2013,10,22,20,24,7.80
2013,10,22,20,25,7.90
2013,10,22,20,26,7.90
2013,10,22,20,27,7.80
2013,10,22,20,28,7.80
2013,10,22,20,29,7.80
2013,10,22,20,30,7.80
2013,10,22,20,31,7.80
2013,10,22,20,32,7.80
2013,10,22,20,33,7.80
2013,10,22,20,34,7.80
2013,10,22,20,35,7.80
2013,10,22,20,36,7.80
2013,10,22,20,37,7.80
2013,10,22,20,38,7.80
2013,10,22,20,39,7.80
2013,10,22,20,40,7.80
2013,10,22,20,41,7.80
2013,10,22,20,42,7.80
2013,10,22,20,43,7.80
2013,10,22,20,44,7.80
2013,10,22,20,45,7.90
2013,10,22,20,46,7.90
2013,10,22,20,47,8.00
2013,10,22,20,48,8.00
2013,10,22,20,49,8.10
2013,10,22,20,50,8.10
2013,10,22,20,51,8.20
2013,10,22,20,52,8.20
2013,10,22,20,53,8.30
2013,10,22,20,54,8.30
2013,10,22,20,55,8.40
2013,10,22,20,56,8.50
2013,10,22,20,57,8.50
2013,10,22,20,58,8.60
2013,10,22,20,59,8.60
2013,10,22,21,00,8.70
2013,10,22,21,01,8.80
2013,10,22,21,02,8.80
2013,10,22,21,03,8.80
2013,10,22,21,04,8.80
2013,10,22,21,05,8.80
2013,10,22,21,06,8.80
2013,10,22,21,07,8.80
2013,10,22,21,08,8.80
2013,10,22,21,09,8.70
2013,10,22,21,10,8.70
2013,10,22,21,11,8.70
2013,10,22,21,12,8.70
2013,10,22,21,13,8.70
2013,10,22,21,14,8.70
2013,10,22,21,15,8.70
2013,10,22,21,16,8.70
2013,10,22,21,17,8.70
2013,10,22,21,18,8.70
2013,10,22,21,19,8.70
2013,10,22,21,20,8.70
2013,10,22,21,21,8.70
2013,10,22,21,22,8.70
2013,10,22,21,23,8.70
2013,10,22,21,24,8.70
2013,10,22,21,25,8.70
2013,10,22,21,26,8.70
2013,10,22,21,27,8.70
2013,10,22,21,28,8.70
2013,10,22,21,29,8.70
2013,10,22,21,30,8.70
2013,10,22,21,31,8.70
2013,10,22,21,32,8.70
2013,10,22,21,33,8.60
2013,10,22,21,34,8.40
2013,10,22,21,35,8.30
2013,10,22,21,36,8.20
2013,10,22,21,37,8.20
2013,10,22,21,38,8.10
2013,10,22,21,39,8.10
2013,10,22,21,40,8.10
2013,10,22,21,41,8.10
2013,10,22,21,42,8.10
2013,10,22,21,43,8.00
2013,10,22,21,44,8.00
2013,10,22,21,45,8.10
2013,10,22,21,46,8.10
2013,10,22,21,47,8.10
2013,10,22,21,48,8.10
2013,10,22,21,49,8.10
2013,10,22,21,50,8.10
2013,10,22,21,51,8.10
2013,10,22,21,52,8.20
2013,10,22,21,53,8.20
2013,10,22,21,54,8.20
2013,10,22,21,55,8.20
2013,10,22,21,56,8.20
2013,10,22,21,57,8.20
2013,10,22,21,58,8.20
2013,10,22,21,59,8.20
2013,10,22,22,00,8.20
2013,10,22,22,01,8.10
2013,10,22,22,02,8.10
2013,10,22,22,03,8.10
2013,10,22,22,04,8.10
2013,10,22,22,05,8.10
2013,10,22,22,06,8.10
2013,10,22,22,07,8.10
2013,10,22,22,08,8.10
2013,10,22,22,09,8.10
2013,10,22,22,10,8.10
2013,10,22,22,11,8.10
2013,10,22,22,12,8.10
2013,10,22,22,13,8.10
2013,10,22,22,14,8.10
2013,10,22,22,15,8.10
2013,10,22,22,16,8.10
2013,10,22,22,17,8.10
2013,10,22,22,18,8.00
2013,10,22,22,19,8.00
2013,10,22,22,20,8.00
2013,10,22,22,21,8.00
2013,10,22,22,22,8.00
2013,10,22,22,23,8.00
2013,10,22,22,24,8.00
2013,10,22,22,25,8.00
2013,10,22,22,26,8.00
2013,10,22,22,27,8.00
2013,10,22,22,28,8.00
2013,10,22,22,29,8.00
2013,10,22,22,30,7.90
2013,10,22,22,31,7.90
2013,10,22,22,32,7.90
2013,10,22,22,33,7.90
2013,10,22,22,34,7.90
2013,10,22,22,35,7.80
2013,10,22,22,36,7.80
2013,10,22,22,37,7.80
2013,10,22,22,38,7.80
2013,10,22,22,39,7.80
2013,10,22,22,40,7.80
2013,10,22,22,41,7.80
2013,10,22,22,42,7.80
2013,10,22,22,43,7.80
2013,10,22,22,44,7.80
2013,10,22,22,45,7.80
2013,10,22,22,46,7.80
2013,10,22,22,47,7.80
2013,10,22,22,48,7.80
2013,10,22,22,49,7.80
2013,10,22,22,50,7.90
2013,10,22,22,51,7.90
2013,10,22,22,52,7.90
2013,10,22,22,53,7.90
2013,10,22,22,54,8.00
2013,10,22,22,55,8.00
2013,10,22,22,56,8.00
2013,10,22,22,57,8.00
2013,10,22,22,58,8.00
2013,10,22,22,59,8.00
2013,10,22,23,00,8.00
2013,10,22,23,01,8.00
2013,10,22,23,02,7.90
2013,10,22,23,03,7.90
2013,10,22,23,04,7.90
2013,10,22,23,05,7.90
2013,10,22,23,06,7.90
2013,10,22,23,07,7.90
2013,10,22,23,08,7.90
2013,10,22,23,09,7.90
2013,10,22,23,10,7.80
2013,10,22,23,11,7.80
2013,10,22,23,12,7.80
2013,10,22,23,13,7.80
2013,10,22,23,14,7.80
2013,10,22,23,15,7.80
2013,10,22,23,16,7.80
2013,10,22,23,17,7.80
2013,10,22,23,18,7.80
2013,10,22,23,19,7.80
2013,10,22,23,20,7.80
2013,10,22,23,21,7.80
2013,10,22,23,22,7.80
2013,10,22,23,23,7.80
2013,10,22,23,24,7.80
2013,10,22,23,25,7.80
2013,10,22,23,26,7.80
2013,10,22,23,27,7.80
2013,10,22,23,28,7.80
2013,10,22,23,29,7.80
2013,10,22,23,30,7.80
2013,10,22,23,31,7.80
2013,10,22,23,32,7.80
2013,10,22,23,33,7.80
2013,10,22,23,34,7.80
2013,10,22,23,35,7.80
2013,10,22,23,36,7.80
2013,10,22,23,37,7.80
2013,10,22,23,38,7.80
2013,10,22,23,39,7.80
2013,10,22,23,40,7.80
2013,10,22,23,41,7.70
2013,10,22,23,42,7.70
2013,10,22,23,43,7.70
2013,10,22,23,44,7.70
2013,10,22,23,45,7.70
2013,10,22,23,46,7.60
2013,10,22,23,47,7.60
2013,10,22,23,48,7.60
2013,10,22,23,49,7.60
2013,10,22,23,50,7.60
2013,10,22,23,51,7.60
2013,10,22,23,52,7.60
2013,10,22,23,53,7.60
2013,10,22,23,54,7.60
2013,10,22,23,55,7.60
2013,10,22,23,56,7.60
2013,10,22,23,57,7.60
2013,10,22,23,58,7.60
2013,10,22,23,59,7.60
